This demonstration page uses our WeatherBlox Daily Observations layout. Learn more.

Left ArrowRight Arrow

38.88101, -77.10428

Hourly Observations for April 25, 2021

Temp ( °F °C ) Dew Point ( °F °C ) Humidity (%) Winds ( mph kmh ) Pressure ( in mb ) Visibility ( mi km ) Precip ( " mm )
12:03 am 00:03 Cloudy with Rain 51 10.6 48 8.9 89 89 NE 6 9 29.80 1009 4 6 0.04 1.02
12:23 am 00:23 Cloudy with Light Rain 51 10.6 48 8.9 89 89 NE 6 9 29.80 1009 4 6 0.08 2.03
12:37 am 00:37 Cloudy with Rain 51 10.6 48 8.9 89 89 ENE 7 11 29.79 1009 4 6 0.11 2.79
12:52 am 00:52 Cloudy with Rain 51 10.6 48 8.9 89 89 NE 9 15 29.78 1008 4 6 0.16 4.06
12:59 am 00:59 Cloudy with Light Rain 51 10.6 48 8.9 89 89 NE 9 15 29.78 1008 4 6 0.01 0.25
1:06 am 01:06 Cloudy with Light Rain 51 10.6 49 9.4 92 92 ENE 8 13 29.78 1008 4 6 0.02 0.51
1:49 am 01:49 Cloudy with Rain 52 11 48 9 88 88 NNE 8 13 29.75 1007 4 6 0.14 3.56
1:52 am 01:52 Cloudy with Light Rain 51 10.6 49 9.4 92 92 NNE 7 11 29.74 1007 4 6 0.14 3.56
2:14 am 02:14 Cloudy with Light Rain 51 10.6 49 9.4 92 92 NE 10 17 29.72 1006 6 10 0.02 0.51
2:52 am 02:52 Cloudy with Light Rain 51 10.6 48 8.9 89 89 NNE 10 17 29.69 1006 5 8 0.05 1.27
3:41 am 03:41 Cloudy with Light Rain 51 10.6 48 8.9 89 89 NNE 10 17 29.68 1005 3 5 0.03 0.76
3:52 am 03:52 Cloudy with Light Rain 51 10.6 48 8.9 89 89 N 9 15 29.68 1005 4 6 0.03 0.76
4:45 am 04:45 Cloudy with Mist and Fog 51 10.6 48 8.9 89 89 N 14 22 29.68 1005 4 6 0.01 0.25
4:52 am 04:52 Cloudy with Mist and Fog 51 10.6 48 8.9 89 89 N 10 17 29.68 1005 4 6 0.01 0.25
4:59 am 04:59 Cloudy with Mist and Fog 51 10.6 48 8.9 89 89 N 10 17 29.69 1005 5 8 0.00 0.00
5:40 am 05:40 Cloudy with Light Rain 51 10.6 48 8.9 89 89 N 12 19 29.70 1006 4 6 0.01 0.25
5:48 am 05:48 Cloudy with Light Rain 52 11 48 9 88 88 NNW 9 15 29.70 1006 4 6 0.01 0.25
5:52 am 05:52 Cloudy with Light Rain 51 10.6 49 9.4 92 92 NNW 8 13 29.70 1006 4 6 0.01 0.25
6:42 am 06:42 Cloudy with Drizzle 51 10.6 48 8.9 89 89 NNW 10 17 29.73 1007 3 4 0.02 0.51
6:52 am 06:52 Cloudy with Drizzle 51 10.6 48 8.9 89 89 N 9 15 29.73 1007 2 3 0.02 0.51
7:18 am 07:18 Cloudy with Drizzle 51 10.6 48 8.9 89 89 N 12 19 29.74 1007 3 5 0.01 0.25
7:26 am 07:26 Cloudy with Mist and Fog 51 10.6 48 8.9 89 89 N 12 19 29.74 1007 3 5 0.01 0.25
7:52 am 07:52 Cloudy 52 11.1 48 8.9 86 86 N 12 19 29.75 1007 8 13 0.01 0.25
8:52 am 08:52 Cloudy 53 11.7 48 8.9 83 83 N 12 19 29.76 1008 10 16 0.00 0.00
9:52 am 09:52 Cloudy 54 12.2 48 8.9 80 80 NNW 13 20 29.79 1009 10 16 0.00 0.00
9:59 am 09:59 Cloudy 55 12.8 48 8.9 77 77 NNW 14 22 29.79 1009 10 16 0.00 0.00
10:52 am 10:52 Cloudy 57 13.9 47 8.3 69 69 NNW 9 15 29.81 1009 10 16 0.00 0.00
11:46 am 11:46 Cloudy 57 14 46 8 67 67 WNW 13 20 29.82 1010 10 16 0.00 0.00
11:52 am 11:52 Cloudy 57 13.9 46 7.8 67 67 WNW 16 26 29.82 1010 10 16 0.00 0.00
12:34 pm 12:34 Mostly Cloudy 61 16.1 48 8.9 63 63 WNW 14 22 29.82 1010 10 16 0.00 0.00
12:52 pm 12:52 Partly Cloudy 63 17.2 49 9.4 60 60 NW 14 22 29.81 1010 10 16 0.00 0.00
1:52 pm 13:52 Mostly Cloudy 66 18.9 47 8.3 50 50 NW 17 28 29.81 1009 10 16 0.00 0.00
2:52 pm 14:52 Mostly Cloudy 65 18.3 46 7.8 51 51 NW 14 22 29.82 1010 10 16 0.00 0.00
3:52 pm 15:52 Mostly Cloudy 65 18.3 43 6.1 45 45 NNW 20 31 29.83 1010 10 16 0.00 0.00
4:52 pm 16:52 Mostly Cloudy 67 19.4 42 5.6 41 41 WNW 23 37 29.83 1010 10 16 0.00 0.00
5:52 pm 17:52 Mostly Cloudy 64 17.8 42 5.6 45 45 WNW 10 17 29.85 1011 10 16 0.00 0.00
6:52 pm 18:52 Mostly Cloudy 64 17.8 40 4.4 41 41 WNW 12 19 29.85 1011 10 16 0.00 0.00
7:52 pm 19:52 Mostly Cloudy 62 16.7 41 5 46 46 WNW 8 13 29.86 1011 10 16 0.00 0.00
8:52 pm 20:52 Mostly Cloudy 59 15 42 5.6 54 54 WSW 7 11 29.89 1012 10 16 0.00 0.00
9:52 pm 21:52 Mostly Cloudy 59 15 43 6.1 56 56 WSW 7 11 29.91 1013 10 16 0.00 0.00
10:52 pm 22:52 Mostly Cloudy 58 14.4 42 5.6 56 56 W 7 11 29.93 1013 10 16 0.00 0.00
11:52 pm 23:52 Mostly Cloudy 58 14.4 40 4.4 51 51 NNW 12 19 29.95 1014 10 16 0.00 0.00

Powered by AerisWeather